[[{"header":{"parameterUnit":"m.s-1","parameterCategory":1,"la1":30.2991,"la2":30.254,"lo1":-89.0895,"lo2":-89.0444,"dy":0.0017,"dx":0.0017,"nx":28,"ny":28,"refTime":"2024-06-18T03:00:00:Z","depth":0,"parameterNumber":2,"parameterNumberName":"U-component_of_WINDS"},"data":[0,0,0,0,0,0,0,0,0,0,0,0,0,0,0,0,0,0,0,0,0,0,0,0,0,0,0,0,0,0,0,0,0,0,0,0,0,0,0,0,0,0,0,0,0,0,0,0,0,0,0,0,0,0,0,0,0,0,-10.563,-10.5631,0,-10.5706,-10.5707,-10.5708,-10.5527,-10.5522,-10.5516,-10.551,-10.5582,-10.5589,-10.5596,0,0,0,0,0,0,0,0,0,0,0,0,0,-10.5324,-10.533,-10.563,-10.5631,-10.5632,-10.5706,-10.5707,-10.5708,-10.5528,-10.5521,-10.5514,-10.5508,-10.558,-10.5588,-10.5597,0,0,0,0,0,0,0,0,0,0,0,0,0,-10.5434,-10.5332,-10.563,-10.5552,-10.5545,-10.5706,-10.5707,-10.5708,-10.553,-10.5521,-10.5513,-10.5505,-10.5577,-10.5587,-10.5598,-10.5836,0,0,-10.5631,-10.5636,0,0,0,0,0,0,0,0,-10.5428,-10.5445,-10.5562,-10.5557,-10.5551,-10.5599,-10.5625,-10.5751,-10.5532,-10.5536,-10.551,-10.55,-10.5594,-10.5603,-10.5636,-10.5839,-10.5842,-10.5632,-10.5639,-10.5643,-10.5646,0,0,0,0,0,0,0,-10.542,-10.5441,-10.566,-10.5564,-10.5557,-10.551,-10.5517,-10.5648,-10.5612,-10.5534,-10.5522,-10.5533,-10.5589,-10.5626,-10.5636,-10.5843,-10.5632,-10.5641,-10.5648,-10.5652,-10.6243,-10.6252,0,0,0,0,0,0,-10.5424,-10.5436,-10.5657,-10.5662,-10.5467,-10.5523,-10.553,-10.5592,-10.561,-10.5604,-10.5541,-10.5525,-10.5611,-10.5624,-10.5638,-10.5915,-10.5643,-10.5653,-10.566,-10.6234,-10.6245,-10.6255,0,0,0,0,0,0,-10.5418,-10.5445,-10.5654,-10.5546,-10.5569,-10.5537,-10.5608,-10.5598,-10.5634,-10.5614,-10.5606,-10.5585,-10.5605,-10.5623,-10.5788,-10.5915,-10.5658,-10.5668,-10.6223,-10.6237,-10.625,-10.6473,0,0,0,0,0,0,-10.541,-10.5444,-10.5536,-10.5549,-10.5575,-10.5806,-10.5616,-10.5605,-10.5654,-10.5634,-10.5654,-10.5649,-10.56,-10.5773,-10.5799,-10.5925,-10.5676,-10.6211,-10.6229,-10.6246,-10.6454,-10.6492,-10.6525,0,0,0,0,0,-10.54,-10.5595,-10.5541,-10.5569,-10.569,-10.5813,-10.5828,-10.5769,-10.5665,-10.5755,-10.5743,-10.5648,-10.5898,-10.5791,-10.5819,-10.595,-10.6203,-10.6224,-10.6244,-10.6438,-10.6485,-10.6525,0,0,0,0,0,0,-10.5595,-10.5595,-10.5536,-10.5742,-10.5779,-10.5783,-10.5895,-10.5821,-10.5887,-10.5866,-10.5788,-10.5794,-10.5973,-10.5979,-10.586,-10.618,-10.6032,-10.606,-10.617,-10.6214,-10.625,-10.6242,-10.5685,0,0,0,0,0,-10.5662,-10.5765,-10.5759,-10.5941,-10.5963,-10.5927,-10.5978,-10.593,-10.5965,-10.5979,-10.5978,-10.6014,-10.61,-10.6158,-10.6236,-10.6455,-10.6455,-10.6559,-10.6595,-10.6625,-10.6648,-10.6761,-10.6806,-10.6323,-10.6323,-10.6323,0,0,-10.5801,-10.5814,-10.5884,-10.5981,-10.6004,-10.6109,-10.5941,-10.606,-10.6137,-10.5996,-10.6152,-10.6154,-10.6188,-10.638,-10.6465,-10.639,-10.6782,-10.6651,-10.6675,-10.6681,-10.6787,-10.6832,-10.6873,-10.6337,-10.6335,-10.6332,0,0,-10.6108,-10.6131,-10.6283,-10.6311,-10.6349,-10.6323,-10.6361,-10.6376,-10.6372,-10.6528,-10.6424,-10.6514,-10.6664,-10.6692,-10.6726,-10.7046,-10.696,-10.7074,-10.7259,-10.737,-10.7408,-10.7441,-10.7551,-10.7592,-10.7098,-10.7098,-10.7099,0,-10.6275,-10.6433,-10.637,-10.6497,-10.6541,-10.6422,-10.6574,-10.6603,-10.6665,-10.6697,-10.6614,-10.6799,-10.6814,-10.701,-10.7088,-10.7122,-10.7158,-10.7069,-10.7408,-10.7441,-10.7471,-10.7575,-10.7617,-10.7111,-10.711,-10.7109,-10.7107,0,-10.6635,-10.6745,-10.6864,-10.6928,-10.6986,-10.7125,-10.7081,-10.7148,-10.7095,-10.7078,-10.7237,-10.7251,-10.7329,-10.7373,-10.7323,-10.7562,-10.7514,-10.7422,-10.727,-10.7531,-10.7627,-10.7667,-10.713,-10.7126,-10.7122,-10.7118,0,0,-10.7063,-10.7093,-10.7136,-10.7163,-10.7198,-10.728,-10.7414,-10.7492,-10.7548,-10.7596,-10.7702,-10.7834,-10.7748,-10.7787,-10.7739,-10.7837,-10.8085,-10.7731,-10.773,-10.7793,-10.8345,-10.8412,-10.8459,-10.803,-10.8038,-10.8044,-10.8341,0,-10.7363,-10.7593,-10.7541,-10.7766,-10.7866,-10.7755,-10.787,-10.7903,-10.7891,-10.7972,-10.7958,-10.8051,-10.7933,-10.7955,-10.8048,-10.8035,-10.8194,-10.8014,-10.8125,-10.813,-10.8115,-10.851,-10.8581,-10.886,-10.8378,-10.8385,-10.839,0,-10.7743,-10.7806,-10.8042,-10.8059,-10.8099,-10.8204,-10.827,-10.8351,-10.8385,-10.8369,-10.8414,-10.8347,-10.8475,-10.8327,-10.8502,-10.8381,-10.8424,-10.8425,-10.8434,-10.8438,-10.8272,-10.8521,-10.8948,-10.8989,-10.8449,-10.8444,-10.844,0,-10.8027,-10.8171,-10.833,-10.8357,-10.8382,-10.8458,-10.8472,-10.8497,-10.8548,-10.8606,-10.8637,-10.871,-10.8748,-10.8805,-10.8758,-10.8655,-10.894,-10.8788,-10.8927,-10.8928,-10.8987,-10.8983,-10.9424,-10.9024,-10.9023,-10.9023,-10.9022,0,-10.8365,-10.8512,-10.8458,-10.8555,-10.8716,-10.8656,-10.8816,-10.8817,-10.8841,-10.8934,-10.8844,-10.8934,-10.8869,-10.8952,-10.8917,-10.9064,-10.9084,-10.9072,-10.906,-10.9078,-10.9079,-10.9101,-10.9079,-10.9034,-10.9031,-10.9029,-10.9027,0,-10.8706,-10.8677,-10.8842,-10.8853,-10.886,-10.8978,-10.8986,-10.9075,-10.9058,-10.9177,-10.9202,-10.9174,-10.9267,-10.9228,-10.9326,-10.9302,-10.9491,-10.9455,-10.948,-10.9469,-10.9608,-10.9594,-11.0074,-11.0133,-10.97,-10.9704,-10.9708,0,-10.8922,-10.9033,-10.9057,-10.9114,-10.9134,-10.9228,-10.9279,-10.9224,-10.928,-10.9328,-10.941,-10.9497,-10.9562,-10.9716,-10.9703,-10.9777,-10.974,-10.9904,-10.975,-10.9764,-10.9737,-10.9729,-10.9738,-10.9933,-10.9938,-10.9942,-10.9945,0,-10.9305,-10.9285,-10.9363,-10.9437,-10.9501,-10.9556,-10.9602,-10.9654,-10.9601,-10.9669,-10.9764,-10.9815,-10.9916,-11.0002,-11.0068,-11.0078,-11.0003,-10.9995,-11.0029,-11.0046,-11.0054,-11.0047,-10.9558,-10.9982,-10.9978,-10.9976,-10.9974,-10.9972,-10.9587,-10.9679,-10.9711,-10.98,-10.983,-10.9876,-10.996,-10.9954,-11.0034,-11.0112,-11.0075,-11.0185,-11.0215,-11.0296,-11.0318,-11.0401,-11.0336,-11.0389,-11.0401,-11.0413,-11.043,-11.0046,-11.0414,-11.0413,-11.0411,-11.0411,-11.041,0,-10.9962,-10.9977,-11.0061,-11.0129,-11.02,-11.0126,-11.0174,-11.0236,-11.0335,-11.0371,-11.0438,-11.0546,-11.0629,-11.0624,-11.0699,-11.0767,-11.0734,-11.0788,-11.078,-11.0783,-11.0485,-11.0445,-11.0814,-11.0814,-11.0814,-11.0814,-11.0814,-11.0814,-11.0165,-11.0317,-11.0301,-11.0466,-11.0479,-11.0588,-11.0621,-11.0662,-11.0689,-11.0816,-11.0885,-11.0882,-11.09,-11.0977,-11.1048,-11.1044,-11.1074,-11.1141,-11.1124,-11.0845,-11.0805,-11.0766,-11.0728,-11.115,-11.115,-11.1414,-11.1416,-11.1418]},{"header":{"parameterUnit":"m.s-1","parameterCategory":1,"la1":30.2991,"la2":30.254,"lo1":-89.0895,"lo2":-89.0444,"dy":0.0017,"dx":0.0017,"nx":28,"ny":28,"refTime":"2024-06-18T03:00:00:Z","depth":0,"parameterNumber":3,"parameterNumberName":"V-component_of_WINDS"},"data":[0,0,0,0,0,0,0,0,0,0,0,0,0,0,0,0,0,0,0,0,0,0,0,0,0,0,0,0,0,0,0,0,0,0,0,0,0,0,0,0,0,0,0,0,0,0,0,0,0,0,0,0,0,0,0,0,0,0,1.627,1.627,0,1.6274,1.6274,1.6274,1.625,1.625,1.6249,1.6248,1.625,1.6251,1.6251,0,0,0,0,0,0,0,0,0,0,0,0,0,1.624,1.6241,1.627,1.627,1.627,1.6274,1.6274,1.6274,1.625,1.625,1.6249,1.6248,1.625,1.6251,1.6251,0,0,0,0,0,0,0,0,0,0,0,0,0,1.625,1.6241,1.627,1.6259,1.6258,1.6274,1.6274,1.6274,1.6251,1.625,1.6249,1.6248,1.625,1.6251,1.6252,1.6278,0,0,1.6255,1.6255,0,0,0,0,0,0,0,0,1.6249,1.6251,1.626,1.6259,1.6258,1.6261,1.6264,1.6275,1.6251,1.6253,1.6248,1.6247,1.6254,1.6255,1.6258,1.6278,1.6278,1.6255,1.6255,1.6256,1.6256,0,0,0,0,0,0,0,1.6249,1.625,1.6271,1.626,1.6259,1.6253,1.6253,1.6266,1.6259,1.6253,1.6251,1.6252,1.6253,1.6257,1.6258,1.6278,1.6255,1.6256,1.6256,1.6257,1.6323,1.6324,0,0,0,0,0,0,1.625,1.625,1.6271,1.6272,1.6251,1.6255,1.6255,1.6261,1.6259,1.6258,1.6253,1.6251,1.6256,1.6256,1.6258,1.629,1.6256,1.6257,1.6257,1.6322,1.6323,1.6324,0,0,0,0,0,0,1.6249,1.6252,1.6271,1.626,1.6262,1.6256,1.6263,1.6262,1.6265,1.6259,1.6258,1.6258,1.6255,1.6256,1.6274,1.6289,1.6257,1.6258,1.632,1.6322,1.6324,1.6354,0,0,0,0,0,0,1.6248,1.6252,1.6262,1.6261,1.6263,1.6288,1.6264,1.6262,1.6267,1.6264,1.6263,1.6262,1.6254,1.6273,1.6275,1.629,1.6259,1.6319,1.6321,1.6323,1.6351,1.6356,1.636,0,0,0,0,0,1.6247,1.6269,1.6262,1.6265,1.6276,1.6289,1.629,1.6281,1.6268,1.6278,1.6275,1.6262,1.6288,1.6275,1.6277,1.6293,1.6318,1.6321,1.6323,1.6349,1.6355,1.636,0,0,0,0,0,0,1.627,1.6268,1.6261,1.6283,1.6286,1.6284,1.6297,1.6287,1.6293,1.6291,1.6279,1.6279,1.6299,1.6298,1.6283,1.632,1.6301,1.6304,1.6319,1.6325,1.633,1.6329,1.626,0,0,0,0,0,1.6278,1.6289,1.6287,1.6306,1.6308,1.6303,1.6308,1.6301,1.6304,1.6305,1.6302,1.6305,1.6314,1.6319,1.6327,1.6351,1.6351,1.6364,1.6368,1.6372,1.6375,1.6389,1.6395,1.6333,1.6333,1.6333,0,0,1.6293,1.6294,1.6301,1.6311,1.6313,1.6325,1.6304,1.6316,1.6325,1.6306,1.6323,1.6322,1.6324,1.6346,1.6355,1.6346,1.6393,1.6376,1.6379,1.6379,1.6393,1.6399,1.6404,1.6335,1.6334,1.6334,0,0,1.6327,1.6329,1.6346,1.6349,1.6353,1.6349,1.6354,1.6354,1.6353,1.6371,1.6357,1.6367,1.6382,1.6385,1.6388,1.6427,1.6416,1.643,1.6454,1.6468,1.6473,1.6477,1.6492,1.6497,1.6433,1.6433,1.6433,0,1.6346,1.6364,1.6356,1.6371,1.6376,1.6361,1.6379,1.6382,1.6388,1.6391,1.6381,1.6401,1.6401,1.6424,1.6434,1.6437,1.6442,1.6429,1.6473,1.6477,1.6481,1.6495,1.65,1.6435,1.6435,1.6434,1.6434,0,1.6387,1.64,1.6413,1.6421,1.6428,1.6444,1.6439,1.6447,1.644,1.6438,1.6457,1.6457,1.6465,1.6471,1.6463,1.6493,1.6487,1.6475,1.6455,1.6489,1.6502,1.6507,1.6437,1.6437,1.6436,1.6436,0,0,1.6433,1.6439,1.6444,1.6448,1.6453,1.6462,1.6479,1.6488,1.6496,1.6501,1.6514,1.6529,1.6519,1.6522,1.6516,1.6528,1.6561,1.6515,1.6515,1.6524,1.6595,1.6604,1.661,1.6554,1.6555,1.6555,1.6595,0,1.6467,1.6496,1.6491,1.6518,1.6531,1.6519,1.6533,1.6537,1.6537,1.6547,1.6545,1.6556,1.6541,1.6544,1.6556,1.6554,1.6575,1.6551,1.6566,1.6567,1.6566,1.6617,1.6626,1.6662,1.66,1.66,1.6601,0,1.651,1.652,1.6549,1.6554,1.6559,1.6572,1.6581,1.6592,1.6597,1.6595,1.6601,1.6593,1.661,1.6591,1.6614,1.6598,1.6604,1.6605,1.6606,1.6606,1.6585,1.6619,1.6674,1.668,1.6609,1.6608,1.6608,0,1.6542,1.6562,1.6582,1.6586,1.6592,1.6602,1.6605,1.6609,1.6616,1.6625,1.6629,1.6639,1.6644,1.6652,1.6647,1.6634,1.6671,1.6652,1.667,1.6671,1.6678,1.6677,1.6735,1.6682,1.6682,1.6682,1.6682,0,1.6581,1.6599,1.6597,1.6609,1.663,1.6625,1.6646,1.6647,1.6652,1.6665,1.6654,1.6667,1.6659,1.6671,1.6667,1.6688,1.669,1.6689,1.6688,1.669,1.669,1.6693,1.669,1.6683,1.6683,1.6683,1.6683,0,1.6619,1.6618,1.664,1.6645,1.6647,1.6662,1.6666,1.6678,1.6678,1.6694,1.6698,1.6697,1.671,1.6707,1.672,1.6718,1.6744,1.6739,1.6742,1.6741,1.676,1.6759,1.6822,1.683,1.6772,1.6772,1.6773,0,1.6643,1.6658,1.6665,1.6674,1.6678,1.6692,1.67,1.6696,1.6704,1.6713,1.6724,1.6737,1.6747,1.677,1.677,1.6781,1.6777,1.6798,1.6778,1.6781,1.6778,1.6777,1.6779,1.6802,1.6802,1.6803,1.6803,0,1.6687,1.6687,1.6699,1.6712,1.6722,1.6732,1.674,1.6748,1.6744,1.6755,1.6769,1.6777,1.6793,1.6807,1.6818,1.682,1.6812,1.681,1.6815,1.6817,1.6819,1.6819,1.6753,1.6808,1.6808,1.6807,1.6807,1.6807,1.672,1.6733,1.6741,1.6755,1.6762,1.6771,1.6783,1.6785,1.6798,1.6811,1.6808,1.6825,1.6832,1.6846,1.6851,1.6864,1.6855,1.6862,1.6864,1.6866,1.6869,1.6817,1.6866,1.6865,1.6865,1.6865,1.6865,0,1.6763,1.6769,1.6783,1.6796,1.6808,1.6801,1.681,1.6821,1.6836,1.6844,1.6855,1.6873,1.6886,1.6889,1.6902,1.6912,1.6909,1.6916,1.6914,1.6916,1.6875,1.687,1.6918,1.6918,1.6918,1.6918,1.6918,1.6918,1.6788,1.681,1.6811,1.6837,1.6842,1.686,1.6866,1.6875,1.6881,1.6902,1.6914,1.6916,1.6922,1.6936,1.6948,1.6949,1.6954,1.6963,1.6961,1.6923,1.6918,1.6913,1.6908,1.6964,1.6964,1.7001,1.7001,1.7001]}]]